User: anonymous   Login
Location: M.A.R.S.Observatory
(35.4031°N, 81.5481°W)
Time: 19:35:50
(UTC-04:00)
Language:

SL-8 R/B - Orbit

View from above orbital plane
View from above orbital plane
View from above satellite
View from above satellite

Ground track
Ground track

The orbit data is extracted from the following two-line orbital elements,

1 33066U 08031G   15108.51059725  .00000499  00000-0  11676-3 0  9995
2 33066 048.4437 207.9518 0007473 011.2270 054.9843 14.69186461366482
Epoch (UTC): 18 April 2015 12:15:15
Eccentricity: 0.0007473
inclination: 48.4437°
perigee height: 658 km
apogee height: 669 km
right ascension of ascending node: 207.9518°
argument of perigee: 11.2270°
revolutions per day: 14.69186461
mean anomaly at epoch: 54.9843°
orbit number at epoch: 36648

The dashed part of the orbit path shows where the satellite is in the earth's shadow,  

DLR